Location: Newark
(45.5167°N, 11.1667°E)
Time: 14:41:40
(UTC+00:00)

Explorer 7 - Pass Details

Date: 17 December 2019
Orbit: 485 x 679 km, 50.3° (Epoch: 20 January)

Event Time Altitude Azimuth Distance (km) Brightness Sun altitude
Rises 12:02:58 0° 215° (SW) 2,876 11.7 20.1°
Reaches altitude 10° 12:05:21 10° 207° (SSW) 2,004 11.5 20.0°
Maximum altitude 12:09:37 37° 140° (SE) 1,011 8.9 19.9°
Drops below altitude 10° 12:14:04 10° 74° (ENE) 2,096 9.5 19.7°
Sets 12:16:35 0° 67° (ENE) 3,026 10.2 19.5°
